CW7448 Weather Reports


Display with metric or nautical units.
time (UTC)temp
F
wind
direction
speed
MPH
gust
MPH
rain 1hr
in
rain 24hr
in
rain mn
in
humidity
%
barometer
mb
20171122044756 50 227 10.0 22.0 0.00 0.00 0.00 77 1016.2
20171122043755 50 218 9.0 24.0 0.00 0.00 0.00 77 1016.3
20171121232746 50 258 11.0 29.0 0.00 0.00 0.00 68 1015.4
20171121223745 49 252 7.0 29.0 0.00 0.00 0.00 63 1015.3
20171121222745 50 238 18.0 27.0 0.00 0.00 0.00 63 1015.0
20171121215744 51 233 14.0 27.0 0.00 0.00 0.00 61 1015.5
20171121213743 51 245 10.0 28.0 0.00 0.00 0.00 60 1015.4
20171121211743 52 257 16.0 38.0 0.00 0.00 0.00 58 1015.4
20171121210742 52 222 7.0 41.0 0.00 0.00 0.00 57 1015.4
20171121205742 53 259 29.0 46.0 0.00 0.00 0.00 56 1015.6
20171121203811 54 234 20.0 42.0 0.00 0.00 0.00 54 1015.7
20171121202741 54 242 14.0 42.0 0.00 0.00 0.00 54 1015.7
20171121200741 55 228 16.0 43.0 0.00 0.00 0.00 53 1015.5
20171121195740 56 292 22.0 42.0 0.00 0.00 0.00 50 1015.4
20171121192739 56 258 9.0 46.0 0.00 0.00 0.00 50 1015.8
20171121190739 56 248 13.0 38.0 0.00 0.00 0.00 50 1015.7
20171121184738 57 221 10.0 48.0 0.00 0.00 0.00 45 1015.9
20171121183808 58 282 13.0 41.0 0.00 0.00 0.00 43 1016.0
20171121181737 57 200 50.0 50.0 0.00 0.00 0.00 43 1015.9
20171121174806 57 261 10.0 55.0 0.00 0.00 0.00 43 1016.2
20171121172736 56 243 15.0 52.0 0.00 0.00 0.00 45 1016.4
20171121165805 57 199 18.0 41.0 0.00 0.00 0.00 45 1016.9
20171121162804 56 252 17.0 38.0 0.00 0.00 0.00 45 1017.7
20171121145801 50 223 3.0 33.0 0.00 0.00 0.00 57 1019.6
20171121144801 50 198 17.0 28.0 0.00 0.00 0.00 59 1019.4
20171121142801 48 196 9.0 36.0 0.00 0.00 0.00 62 1019.6
20171121140800 46 208 7.0 35.0 0.00 0.00 0.00 69 1019.5
20171121134759 44 216 10.0 25.0 0.00 0.00 0.00 73 1019.6
20171121131759 40 258 6.0 15.0 0.00 0.00 0.00 78 1019.6
20171121125758 37 235 11.0 11.0 0.00 0.00 0.00 82 1019.6
20171121123757 35 236 7.0 13.0 0.00 0.00 0.00 85 1019.4
20171121122757 34 253 2.0 16.0 0.00 0.00 0.00 86 1019.2
20171121121757 33 250 2.0 13.0 0.00 0.00 0.00 88 1019.0
20171121120757 32 248 5.0 16.0 0.00 0.00 0.00 87 1019.0
20171121111755 31 252 0.0 0.0 0.00 0.00 0.00 83 1018.4
20171121104754 31 252 2.0 8.0 0.00 0.00 0.00 84 1018.2
20171121093752 29 250 0.0 1.0 0.00 0.00 0.00 86 1018.0
20171121091752 30 250 0.0 0.0 0.00 0.00 0.00 85 1018.1
20171121085751 30 250 0.0 0.0 0.00 0.00 0.00 84 1018.0
20171121073748 31 250 0.0 4.0 0.00 0.00 0.00 80 1018.3
20171121070748 32 250 0.0 8.0 0.00 0.00 0.00 79 1018.2
20171121062746 33 250 2.0 10.0 0.00 0.00 0.00 75 1018.1
20171121061746 32 250 5.0 9.0 0.00 0.00 0.00 79 1018.1
20171121060746 33 238 3.0 9.0 0.00 0.00 0.00 76 1017.9
20171121054745 34 238 0.0 0.0 0.00 0.00 0.00 73 1017.6